Location: Devore Heights
(34.2372°N, 117.4156°W)
Time: 19:47:37
(UTC+00:00)

deb Explorer IX - Pass Details

Date: 13 September 2024
Orbit: 502 x 816 km, 38.7° (Epoch: 15 October)

Event Time Altitude Azimuth Distance (km) Brightness Sun altitude
Rises 04:26:44 0° 247° (WSW) 3,412 ? -29.9°
Reaches altitude 10° 04:29:18 10° 246° (WSW) 2,479 ? -30.3°
Enters shadow 04:33:36 49° 244° (WSW) 1,075 ? -31.1°
Maximum altitude 04:35:17 87° 159° (SSE) 845 - -31.4°
Drops below altitude 10° 04:41:01 10° 70° (ENE) 2,381 - -32.4°
Sets 04:43:26 0° 70° (ENE) 3,269 - -32.9°
